Weather History for Wilmington, NC

Change the Weather History Date:

Monday, January 21, 2013

  Actual Average Record
Temperature  
Mean Temperature 50 °F 46 °F  
Max Temperature 65 °F 57 °F 78 °F (1954)
Min Temperature 34 °F 36 °F 5 °F (1985)
Degree Days  
Heating Degree Days 15 19  
Month to date heating degree days 246 399  
Since 1 July heating degree days 1124 1283  
Cooling Degree Days 0 0  
Month to date cooling degree days 8 0  
Year to date cooling degree days 8 0  
Moisture  
Dew Point 38 °F    
Average Humidity 65    
Maximum Humidity 92    
Minimum Humidity 37    
Precipitation  
Precipitation 0.00 in 0.13 in 1.95 in (1953)
Month to date precipitation 1.89 2.54  
Year to date precipitation 1.89 2.54  
Snow  
Snow 0.00 in 0.00 in - ()
Month to date snowfall 0.0 0.3  
Since 1 July snowfall 0.0 1.1  
Snow Depth 0.00 in    
Sea Level Pressure  
Sea Level Pressure 30.00 in    
Wind  
Wind Speed 5 mph (SW)    
Max Wind Speed 18 mph    
Max Gust Speed 24 mph    
Visibility 10 miles    
Events      
T = Trace of Precipitation, MM = Missing Value Source: NWS Daily Summary

Daily Weather History Graph

Daily Weather History Graph

Search for Another Location

Airport:

Trip Planner

Search our weather history database for the weather conditions in past years. The results will help you decide how hot, cold, wet, or windy it might be!

Date:

Astronomy

Jan. 21, 2013 Rise Set
Actual Time 7:15 AM EST 5:31 PM EST
Civil Twilight 6:48 AM EST 5:57 PM EST
Nautical Twilight 6:17 AM EST 6:28 PM EST
Astronomical Twilight 5:47 AM EST 6:58 PM EST
Moon 1:10 PM EST (1/21) 2:41 AM EST (1/21)
Length of Visible Light 11h 09m
Length of Day
10h 15m
Waxing Gibbous, 75% of the Moon is Illuminated
Jan 21
Waxing Gibbous
Jan 26
Full
Feb 3
Last Quarter
Feb 10
New
Feb 17
First Quarter

Hourly Weather History & Observations

Time (EST) Temp. Dew Point Humidity Pressure Visibility Wind Dir Wind Speed Gust Speed Precip Events Conditions
12:53 AM 41.0 °F 37.9 °F 89% 30.07 in 10.0 mi Calm Calm - N/A   Clear
1:53 AM 39.9 °F 36.0 °F 86% 30.07 in 10.0 mi Calm Calm - N/A   Clear
2:53 AM 37.9 °F 35.1 °F 89% 30.06 in 10.0 mi Calm Calm - N/A   Clear
3:53 AM 37.0 °F 34.0 °F 89% 30.06 in 10.0 mi Calm Calm - N/A   Clear
4:53 AM 37.0 °F 34.0 °F 89% 30.06 in 10.0 mi Calm Calm - N/A   Clear
5:53 AM 37.0 °F 34.0 °F 89% 30.05 in 9.0 mi Calm Calm - N/A   Clear
6:53 AM 35.1 °F 33.1 °F 92% 30.07 in 10.0 mi Calm Calm - N/A   Clear
7:53 AM 37.0 °F 34.0 °F 89% 30.07 in 10.0 mi Calm Calm - N/A   Clear
8:53 AM 46.0 °F 37.0 °F 71% 30.08 in 10.0 mi Calm Calm - N/A   Clear
9:53 AM 52.0 °F 35.1 °F 53% 30.09 in 10.0 mi East 5.8 mph - N/A   Clear
10:53 AM 57.9 °F 39.0 °F 49% 30.07 in 10.0 mi ESE 6.9 mph - N/A   Clear
11:53 AM 61.0 °F 39.9 °F 46% 30.03 in 10.0 mi SE 4.6 mph - N/A   Clear
12:53 PM 63.0 °F 41.0 °F 45% 29.98 in 10.0 mi South 9.2 mph - N/A   Clear
1:53 PM 64.9 °F 41.0 °F 42% 29.94 in 10.0 mi SSW 11.5 mph - N/A   Clear
2:53 PM 64.0 °F 37.9 °F 38% 29.92 in 10.0 mi SW 15.0 mph 21.9 mph N/A   Clear
3:53 PM 62.1 °F 39.0 °F 43% 29.91 in 10.0 mi SW 13.8 mph - N/A   Clear
4:53 PM 60.1 °F 42.1 °F 51% 29.91 in 10.0 mi SW 9.2 mph - N/A   Clear
5:53 PM 57.0 °F 43.0 °F 59% 29.92 in 10.0 mi SSW 8.1 mph - N/A   Clear
6:53 PM 54.0 °F 44.1 °F 69% 29.93 in 10.0 mi SW 5.8 mph - N/A   Clear
7:53 PM 53.1 °F 42.1 °F 66% 29.94 in 10.0 mi WSW 6.9 mph - N/A   Clear
8:53 PM 52.0 °F 39.0 °F 61% 29.95 in 10.0 mi WSW 8.1 mph - N/A   Clear
9:53 PM 51.1 °F 37.9 °F 61% 29.96 in 10.0 mi WSW 8.1 mph - N/A   Clear
10:53 PM 48.9 °F 36.0 °F 61% 29.96 in 10.0 mi WSW 5.8 mph - N/A   Clear
11:53 PM 48.9 °F 34.0 °F 56% 29.96 in 10.0 mi West 6.9 mph - N/A   Clear